Location: Barletta
(41.3170°N, 16.2830°E)
Time: 03:31:11
(UTC+02:00)

ISS - Pass Details

Date: 18 May 2021
Orbit: 417 x 422 km, 51.6° (Epoch: 14 June)

Event Time Altitude Azimuth Distance (km) Brightness Sun altitude
Rises 21:15:43 0° 253° (WSW) 2,354 0.6 -11.2°
Reaches altitude 10° 21:17:53 10° 262° (W) 1,494 -0.3 -11.5°
Maximum altitude 21:21:03 38° 332° (NNW) 656 -2.2 -11.9°
Drops below altitude 10° 21:24:14 10° 43° (NE) 1,503 -1.0 -12.4°
Sets 21:26:26 0° 51° (NE) 2,370 0.0 -12.7°
